Location: Crab Orchard
(37.7292°N, 88.8042°W)
Time: 00:05:12
(UTC+00:00)

CORIOLIS - Pass Details

Date: 08 December 2019
Orbit: 818 x 839 km, 98.7° (Epoch: 17 January)

Event Time Altitude Azimuth Distance (km) Brightness Sun altitude
Rises 23:16:46 0° 157° (SSE) 3,373 7.3 -8.1°
Reaches altitude 10° 23:19:07 10° 155° (SSE) 2,444 6.6 -8.5°
Maximum altitude 23:24:29 66° 74° (ENE) 913 4.2 -9.5°
Drops below altitude 10° 23:29:54 10° 353° (N) 2,462 6.5 -10.5°
Sets 23:32:16 0° 351° (N) 3,399 7.2 -10.9°
